Regional Weather Roundup
Issued by NWS Austin/San Antonio, TX

Home | Current Version | Previous Version | Text Only | Print | Product List | Glossary On
Versions: 1 2 3 4 5 6 7 8 9 10 11 12 13 14 15 16 17 18 19 20 21 22 23 24 25 26 27 28 29 30 31 32 33 34 35 36 37 38 39 40 41 42 43 44 45 46 47 48 49 50
000
ASUS44 KEWX 262102
RWREWX
SOUTH TEXAS REGIONAL WEATHER ROUNDUP
NATIONAL WEATHER SERVICE AUSTIN/SAN ANTONIO TX
400 PM CDT FRI MAY 26 2017

NOTE: "FAIR" INDICATED FEW OR NO CLOUDS BELOW 12,000 FEET WITH NO
SIGNIFICANT WEATHER AND/OR OBSTRUCTIONS TO VISIBILITY.

* - THESE STATIONS ARE NOT NWS OR FAA STATIONS...AND ARE NOT SUBJECT
    TO NWS AND FAA QUALITY CONTROL.

TXZ171-172-183>190-262200-
TEXAS HILL COUNTRY AND EDWARDS PLATEAU

CITY           SKY/WX    TMP DP  RH WIND       PRES   REMARKS
JUNCTION       SUNNY     97  65  34 VRB7      29.82F HX  99
*LLANO         MOSUNNY   91  72  52 S8        29.85F HX  98
BURNET         PTSUNNY   85  72  65 S10G18    29.87  HX  91
*HORSESHOE BAY NOT AVBL
*KERRVILLE     MOSUNNY   89  75  63 S6        29.88F HX  98
*FREDERICKSBRG PTSUNNY   85  69  57 S6G16     29.88F
*ROCKSPRINGS   SUNNY     91  70  49 S9        29.91F HX  97
*BOERNE STAGE  PTSUNNY   82  70  65 S7        29.88F
*CASTROVILLE   PTSUNNY   91  70  50 SE5       29.85F HX  96
HONDO          MOSUNNY   89  74  60 S6        29.84F HX  98
*UVALDE        MOSUNNY   89  73  59 CALM      29.84F HX  96
DEL RIO        SUNNY     93  70  46 E8        29.80F HX  99
LAUGHLIN AFB   MOSUNNY   93  74  54 SE5       29.81F HX 102
CARRIZO SPRGS  SUNNY     93  72  49 CALM      29.79F HX 100
*EAGLE PASS    NOT AVBL
$$

TXZ173-191>194-202-209-217>225-228-262200-
CENTRAL AND SOUTH CENTRAL TEXAS

CITY           SKY/WX    TMP DP  RH WIND       PRES   REMARKS
GEORGETOWN     NOT AVBL
AUSTIN/BERGSTM PTSUNNY   93  74  53 S16       29.82F HX 103
AUSTIN/MABRY   MOSUNNY   89  72  56 SW8       29.85F HX  96
*AUSTIN/EXEC   FAIR      88  73  62 SW9       29.84F HX  96
*LAGO VISTA    CLOUDY    84  73  70 SW8       29.88S HX  90
SAN MARCOS     PTSUNNY   88  73  62 S13       29.85F HX  96
NEW BRAUNFELS  CLOUDY    92  73  53 S9        29.83F HX 100
RANDOLPH AFB   PTSUNNY   89  73  59 SW8       29.84F HX  97
PT SAN ANTONIO PTSUNNY   91  72  54 S7        29.82F HX  98
SAN ANTONIO    PTSUNNY   88  71  57 SE7       29.84F HX  94
STINSON FIELD  PTSUNNY   93  72  50 SE8       29.81F HX 101
*LA GRANGE     PTSUNNY   92  76  60 S13G18    29.82F HX 103
*GIDDINGS      PTSUNNY   89  72  57 S12G18    29.84F HX  95
*GONZALES      CLOUDY    92  77  61 S10G16    29.82F HX 105
$$

TXZ163>164-176>182-195>201-210>213-226-227-235-262200-
SOUTHEAST TEXAS

CITY           SKY/WX    TMP DP  RH WIND       PRES   REMARKS
COLLEGE STN    PTSUNNY   89  74  60 S14G23    29.83F HX  98
*BRYAN         MOSUNNY   90  73  57 S14G21    29.84F HX  97
*CALDWELL      NOT AVBL
*CROCKETT      PTSUNNY   88  73  62 S14G20    29.87F HX  96
*BRENHAM       CLOUDY    90  73  58 S14G25    29.86S HX  98
HUNTSVILLE     PTSUNNY   90  71  53 S12G20    29.85F HX  96
CONROE         MOSUNNY   89  72  56 S15       29.86F HX  96
HOUSTON BUSH   CLOUDY    89  73  59 S14       29.87F HX  97
HOUSTON HOBBY  PTSUNNY   85  74  69 S15G21    29.88S HX  92
*HOUSTON SW AP CLOUDY    85  74  70 S12G18    29.89F HX  93
PEARLAND       CLOUDY    87  74  64 S14       29.90F HX  95
HOUSTON HOOKS  PTSUNNY   89  73  59 S14       29.86F HX  97
ELLINGTON FLD  PTSUNNY   88  73  62 S16       29.92F HX  96
SUGAR LAND     CLOUDY    87  75  67 S14       29.87F HX  96
*HOUSTON EXEC  CLOUDY    88  75  66 S16G23    29.88F HAZE    HX  97
*CLEVELAND MUN CLOUDY    86  74  68 S13G21    29.88S HAZE    HX  94
*WHARTON       CLOUDY    85  72  65 S14G20    29.88S HX  90
*COLUMBUS      CLOUDY    86  74  67 S13G20    29.86F HX  94
*EAGLE LAKE    CLOUDY    87  77  73 S15       29.86F HX  98
$$

TXZ214>216-236>238-262200-
THE UPPER TEXAS COAST

CITY           SKY/WX    TMP DP  RH WIND       PRES   REMARKS
*ORANGE        CLOUDY    83  74  74 S13       29.94F
PORT ARTHUR    CLOUDY    83  72  69 S15G23    29.91F
GALVESTON      CLOUDY    84  77  79 SE16      29.92F HX  94
ANGLETON       CLOUDY    85  76  74 S15       29.90F HX  94
*BAY CITY      CLOUDY    84  76  77 SE10G17   29.88F HX  92
PALACIOS       PTSUNNY   84  75  74 SE22      29.87F HX  92
$$

TXZ229>234-239>247-262200-
TEXAS COASTAL BEND AND RIO GRANDE PLAINS

CITY           SKY/WX    TMP DP  RH WIND       PRES   REMARKS
VICTORIA       CLOUDY    87  75  67 S20       29.85F HX  96
*BEEVILLE      CLOUDY    90  79  70 SE13      29.82S HX 105
ROCKPORT       PTSUNNY   87  76  69 SE16      29.83F HX  97
*PORT ARANSAS  SUNNY     84  77  77 SE16G22   29.83F HX  94
*PORT LAVACA   CLOUDY    84  78  82 SE15G21   29.86S HX  94
*INGLESIDE     PTSUNNY   88  78  71 SE17G26   29.83F HX 101
CORPUS CHRISTI PTSUNNY   88  78  72 SE21      29.80F HX 101
CORPUS NAS     NOT AVBL
*ROBSTOWN      CLOUDY    91  78  64 SE13G21   29.81F HX 105
ALICE          SUNNY     95  77  55 E17G24    29.77F HX 109
KINGSVILLE NAS MOSUNNY   95  80  61 SE21G26   29.78F HX 114
COTULLA        MOSUNNY   97  69  40 VRB6      29.78F HX 103
*FAITH RANCH   SUNNY     93  72  49 MISG      29.80F HX 100
LAREDO         SUNNY     96  75  50 SE8       29.78F HX 108
$$

TXZ248>255-262200-
DEEP SOUTH TEXAS

CITY           SKY/WX    TMP DP  RH WIND       PRES   REMARKS
BROWNSVILLE    MOSUNNY   95  78  58 S21G26    29.81F HX 111
PORT ISABEL    MOSUNNY   92  78  63 S18G30    29.80F HX 107
*SOUTH PADRE   NOT AVBL
HARLINGEN      MOSUNNY   97  78  54 S16G29    29.78F HX 114
*HEBBRONVILLE  SUNNY     98  68  37 SE14G20   29.79F HX 103
MCALLEN        MOSUNNY  100  77  47 SE18G24   29.77F HX 116
*WESLACO       MOSUNNY   96  75  51 S16G24    29.77F HX 108
FALFURRIAS     SUNNY     99  71  40 S13G20    29.76F HX 106
EDINBURG       SUNNY    100  72  41 SE20G26   29.77S HX 109
*ZAPATA        SUNNY     97  72  43 SW3       29.75F HX 105
$$

TXZ213>215-236>238-242>244-246-247-251-254-255-262200-
CMAN STATIONS

STATION/POSITION TIME  TEMP    WIND        PRES    WAVE
                       AIR SEA DIR/SP/G            HT/PER
                 (UTC) (F)     (DEG/KT/KT) (MB)    (FT/S)
SABINE PASS      2030   81 81  180/ 11/ 17 1015.3
SEA RIM ST PARK  2000   80     170/ 12/ 14 1014.3
NORTH JETTY/GLS  2030      80  150/ 15/ 16 1012.8
EAGLE POINT      2030   80 79  170/ 16/ 20 1012.7
MORGANS POINT    2030   82 78  150/  9/ 14 1012.4
MISSION/ARANSAS  2000   81                 1011.0
PORT O`CONNOR    2030   80     130/ 16/ 18 1010.9
PORT ARANSAS     2000   80 81  130/ 16/ 19 1010.5
MALAQUITE BEACH  2030   81 81  120/ 19/ 22 1010.4
BAFFIN BAY       2030   83 86              1009.4
PORT ISABEL      2030   84 81  150/ 17/ 20 1009.7
$$



USA.gov is the U.S. government's official web portal to all federal, state and local government web resources and services.